START_TIME,STEP,MOV.,A39,t_acc.,A33,t_acc.,P32,t_acc.,P31,t_acc.
1981-08-25 06:00:23.690 ,0,0,1.,0.8,0.,0.8,0.,0.8,0.,0.8
1981-08-25 06:00:24.490 ,0,0,0.,0.8,0.,0.8,0.,0.8,0.,0.8
1981-08-25 06:00:25.290 ,0,0,0.,0.8,0.,0.8,0.,0.8,0.,0.8
1981-08-25 06:00:26.090 ,0,0,0.,0.8,0.,0.8,0.,0.8,0.,0.8
1981-08-25 06:00:26.890 ,0,0,0.,0.8,0.,0.8,0.,0.8,0.,0.8
1981-08-25 06:00:27.690 ,0,0,0.,0.8,0.,0.8,0.,0.8,0.,0.8
1981-08-25 06:00:28.490 ,0,0,0.,0.8,0.,0.8,0.,0.8,0.,0.8
1981-08-25 06:00:29.290 ,0,0,0.,0.8,0.,0.8,0.,0.8,0.,0.8
1981-08-25 06:00:30.090 ,0,0,0.,0.8,0.,0.8,0.,0.8,0.,0.8
1981-08-25 06:00:30.890 ,0,0,1.,0.8,0.,0.8,0.,0.8,0.,0.8
1981-08-25 06:00:31.690 ,0,0,1.,0.8,0.,0.8,0.,0.8,0.,0.8
1981-08-25 06:00:32.490 ,0,0,0.,0.8,0.,0.8,0.,0.8,0.,0.8
1981-08-25 06:00:33.290 ,0,0,0.,0.8,0.,0.8,0.,0.8,0.,0.8
1981-08-25 06:00:34.090 ,0,0,0.,0.8,0.,0.8,0.,0.8,0.,0.8
1981-08-25 06:00:34.890 ,0,0,0.,0.8,0.,0.8,0.,0.8,0.,0.8
1981-08-25 06:00:35.690 ,0,0,0.,0.8,0.,0.8,0.,0.8,0.,0.8
1981-08-25 06:00:36.490 ,0,0,0.,0.8,0.,0.8,0.,0.8,0.,0.8
1981-08-25 06:00:37.290 ,0,0,0.,0.8,0.,0.8,0.,0.8,0.,0.8
1981-08-25 06:00:38.090 ,0,0,0.,0.8,0.,0.8,0.,0.8,0.,0.8
1981-08-25 06:00:38.890 ,0,0,0.,0.8,0.,0.8,0.,0.8,0.,0.8
1981-08-25 06:00:39.690 ,0,0,0.,0.8,0.,0.8,0.,0.8,0.,0.8
1981-08-25 06:00:40.490 ,0,0,0.,0.8,0.,0.8,0.,0.8,0.,0.8
1981-08-25 06:00:41.290 ,0,0,1.,0.8,0.,0.8,0.,0.8,0.,0.8
1981-08-25 06:00:42.090 ,0,0,0.,0.8,0.,0.8,0.,0.8,0.,0.8
1981-08-25 06:00:42.890 ,0,0,0.,0.8,0.,0.8,0.,0.8,0.,0.8
1981-08-25 06:00:43.690 ,0,0,0.,0.8,0.,0.8,0.,0.8,0.,0.8
1981-08-25 06:00:44.490 ,0,0,0.,0.8,0.,0.8,0.,0.8,0.,0.8
1981-08-25 06:00:45.290 ,0,0,1.,0.8,0.,0.8,0.,0.8,0.,0.8
1981-08-25 06:00:46.090 ,0,0,0.,0.8,0.,0.8,0.,0.8,0.,0.8
1981-08-25 06:00:46.890 ,0,0,,0,,0,,0,,0
1981-08-25 06:00:51.890 ,0,0,,0,,0,,0,,0
1981-08-25 06:00:52.690 ,0,0,,0,,0,,0,,0
1981-08-25 06:00:53.490 ,0,0,,0,,0,,0,,0
1981-08-25 06:00:54.290 ,0,0,,0,,0,,0,,0
1981-08-25 06:00:55.090 ,0,0,,0,,0,,0,,0
1981-08-25 06:00:55.890 ,0,0,0.,0.8,0.,0.8,0.,0.8,0.,0.8
1981-08-25 06:00:56.690 ,0,0,0.,0.8,0.,0.8,0.,0.8,0.,0.8
1981-08-25 06:00:57.490 ,0,0,1.,0.8,0.,0.8,0.,0.8,0.,0.8
1981-08-25 06:00:58.290 ,0,0,0.,0.8,0.,0.8,0.,0.8,0.,0.8
1981-08-25 06:00:59.090 ,0,0,0.,0.8,0.,0.8,0.,0.8,0.,0.8
1981-08-25 06:00:59.890 ,0,0,0.,0.8,0.,0.8,0.,0.8,0.,0.8
1981-08-25 06:01:00.690 ,0,0,0.,0.8,0.,0.8,0.,0.8,0.,0.8
1981-08-25 06:01:01.490 ,0,0,0.,0.8,0.,0.8,0.,0.8,0.,0.8
1981-08-25 06:01:02.290 ,0,0,0.,0.8,0.,0.8,0.,0.8,0.,0.8
1981-08-25 06:01:03.090 ,0,0,0.,0.8,0.,0.8,0.,0.8,0.,0.8
1981-08-25 06:01:03.890 ,0,0,0.,0.8,0.,0.8,0.,0.8,0.,0.8
1981-08-25 06:01:04.690 ,0,0,0.,0.8,0.,0.8,0.,0.8,0.,0.8
1981-08-25 06:01:05.490 ,0,0,0.,0.8,0.,0.8,0.,0.8,0.,0.8
1981-08-25 06:01:06.290 ,0,0,0.,0.8,0.,0.8,0.,0.8,0.,0.8
1981-08-25 06:01:07.090 ,0,0,0.,0.8,0.,0.8,0.,0.8,0.,0.8
1981-08-25 06:01:07.890 ,0,0,0.,0.8,0.,0.8,0.,0.8,0.,0.8
1981-08-25 06:01:08.690 ,0,0,0.,0.8,0.,0.8,0.,0.8,0.,0.8
1981-08-25 06:01:09.490 ,0,0,0.,0.8,0.,0.8,0.,0.8,0.,0.8
1981-08-25 06:01:10.290 ,0,0,0.,0.8,0.,0.8,0.,0.8,0.,0.8
1981-08-25 06:01:11.090 ,0,0,0.,0.8,0.,0.8,0.,0.8,0.,0.8
1981-08-25 06:01:11.890 ,0,0,0.,0.8,0.,0.8,0.,0.8,0.,0.8
1981-08-25 06:01:12.690 ,0,0,0.,0.8,0.,0.8,0.,0.8,0.,0.8
1981-08-25 06:01:13.490 ,0,0,0.,0.8,0.,0.8,0.,0.8,0.,0.8
1981-08-25 06:01:14.290 ,0,0,0.,0.8,0.,0.8,0.,0.8,0.,0.8
1981-08-25 06:01:15.090 ,0,0,0.,0.8,0.,0.8,0.,0.8,0.,0.8
1981-08-25 06:01:11.690 ,0,0,0.,0.8,0.,0.8,0.,0.8,0.,0.8
1981-08-25 06:01:12.490 ,0,0,0.,0.8,0.,0.8,0.,0.8,0.,0.8
1981-08-25 06:01:13.290 ,0,0,0.,0.8,0.,0.8,0.,0.8,0.,0.8
1981-08-25 06:01:14.090 ,0,0,0.,0.8,0.,0.8,0.,0.8,0.,0.8
1981-08-25 06:01:14.890 ,0,0,0.,0.8,0.,0.8,0.,0.8,0.,0.8
1981-08-25 06:01:15.690 ,0,0,0.,0.8,0.,0.8,0.,0.8,0.,0.8
1981-08-25 06:01:16.490 ,0,0,0.,0.8,0.,0.8,0.,0.8,0.,0.8
1981-08-25 06:01:17.290 ,0,0,0.,0.8,0.,0.8,0.,0.8,0.,0.8
1981-08-25 06:01:18.090 ,0,0,0.,0.8,0.,0.8,0.,0.8,0.,0.8
1981-08-25 06:01:18.890 ,0,0,0.,0.8,0.,0.8,0.,0.8,0.,0.8
1981-08-25 06:01:19.690 ,0,0,0.,0.8,0.,0.8,0.,0.8,0.,0.8
1981-08-25 06:01:20.490 ,0,0,0.,0.8,0.,0.8,0.,0.8,0.,0.8
1981-08-25 06:01:21.290 ,0,0,0.,0.8,0.,0.8,0.,0.8,0.,0.8
1981-08-25 06:01:22.090 ,0,0,0.,0.8,0.,0.8,0.,0.8,0.,0.8
1981-08-25 06:01:22.890 ,0,0,0.,0.8,0.,0.8,0.,0.8,0.,0.8
1981-08-25 06:01:23.690 ,0,0,0.,0.8,0.,0.8,0.,0.8,0.,0.8
1981-08-25 06:01:24.490 ,0,0,0.,0.8,0.,0.8,0.,0.8,0.,0.8
1981-08-25 06:01:25.290 ,0,0,0.,0.8,0.,0.8,0.,0.8,0.,0.8
1981-08-25 06:01:26.090 ,0,0,0.,0.8,0.,0.8,0.,0.8,0.,0.8
1981-08-25 06:01:26.890 ,0,0,0.,0.8,0.,0.8,0.,0.8,0.,0.8
1981-08-25 06:01:27.690 ,0,0,0.,0.8,0.,0.8,0.,0.8,0.,0.8
1981-08-25 06:01:28.490 ,0,0,0.,0.8,0.,0.8,0.,0.8,0.,0.8
1981-08-25 06:01:29.290 ,0,0,0.,0.8,0.,0.8,0.,0.8,0.,0.8
1981-08-25 06:01:30.090 ,0,0,0.,0.8,0.,0.8,0.,0.8,0.,0.8
1981-08-25 06:01:30.890 ,0,0,0.,0.8,0.,0.8,0.,0.8,0.,0.8
1981-08-25 06:01:31.690 ,0,0,0.,0.8,0.,0.8,0.,0.8,0.,0.8
1981-08-25 06:01:32.490 ,0,0,0.,0.8,0.,0.8,0.,0.8,0.,0.8
1981-08-25 06:01:33.290 ,0,0,0.,0.8,0.,0.8,0.,0.8,0.,0.8
1981-08-25 06:01:34.090 ,0,0,0.,0.8,0.,0.8,0.,0.8,0.,0.8
1981-08-25 06:01:34.890 ,0,0,0.,0.8,0.,0.8,0.,0.8,0.,0.8
1981-08-25 06:01:35.690 ,2,0,0.,0.8,0.,0.8,0.,0.8,0.,0.8
1981-08-25 06:01:36.490 ,2,0,0.,0.8,0.,0.8,0.,0.8,0.,0.8
1981-08-25 06:01:37.290 ,2,0,0.,0.8,0.,0.8,0.,0.8,0.,0.8
1981-08-25 06:01:38.090 ,2,0,0.,0.8,0.,0.8,0.,0.8,0.,0.8
1981-08-25 06:01:38.890 ,2,0,0.,0.8,0.,0.8,0.,0.8,0.,0.8
1981-08-25 06:01:39.690 ,2,0,0.,0.8,0.,0.8,0.,0.8,0.,0.8
1981-08-25 06:01:40.490 ,2,0,0.,0.8,0.,0.8,0.,0.8,0.,0.8
1981-08-25 06:01:41.290 ,2,0,0.,0.8,0.,0.8,0.,0.8,0.,0.8
1981-08-25 06:01:42.090 ,2,0,0.,0.8,0.,0.8,0.,0.8,0.,0.8
1981-08-25 06:01:42.890 ,2,0,0.,0.8,0.,0.8,0.,0.8,0.,0.8
1981-08-25 06:01:43.690 ,2,0,0.,0.8,0.,0.8,0.,0.8,0.,0.8
1981-08-25 06:01:44.490 ,2,0,0.,0.8,0.,0.8,0.,0.8,0.,0.8
1981-08-25 06:01:45.290 ,2,0,0.,0.8,0.,0.8,0.,0.8,0.,0.8
1981-08-25 06:01:46.090 ,2,0,0.,0.8,0.,0.8,0.,0.8,0.,0.8
1981-08-25 06:01:46.890 ,2,0,0.,0.8,0.,0.8,0.,0.8,0.,0.8
1981-08-25 06:01:47.690 ,2,0,0.,0.8,0.,0.8,0.,0.8,0.,0.8
1981-08-25 06:01:48.490 ,2,0,0.,0.8,0.,0.8,0.,0.8,0.,0.8
1981-08-25 06:01:49.290 ,2,0,0.,0.8,0.,0.8,0.,0.8,0.,0.8
1981-08-25 06:01:50.090 ,2,0,0.,0.8,0.,0.8,0.,0.8,0.,0.8
1981-08-25 06:01:50.890 ,2,0,0.,0.8,0.,0.8,0.,0.8,0.,0.8
1981-08-25 06:01:51.690 ,2,0,0.,0.8,0.,0.8,0.,0.8,0.,0.8
1981-08-25 06:01:52.490 ,2,0,0.,0.8,0.,0.8,0.,0.8,0.,0.8
1981-08-25 06:01:53.290 ,2,0,0.,0.8,0.,0.8,0.,0.8,0.,0.8
1981-08-25 06:01:54.090 ,2,0,0.,0.8,0.,0.8,0.,0.8,0.,0.8
1981-08-25 06:01:54.890 ,2,0,0.,0.8,0.,0.8,0.,0.8,0.,0.8
1981-08-25 06:01:55.690 ,2,0,0.,0.8,0.,0.8,0.,0.8,0.,0.8
1981-08-25 06:01:56.490 ,2,0,0.,0.8,0.,0.8,0.,0.8,0.,0.8
1981-08-25 06:01:57.290 ,2,0,0.,0.8,0.,0.8,0.,0.8,0.,0.8
1981-08-25 06:01:58.090 ,2,0,0.,0.8,0.,0.8,0.,0.8,0.,0.8
1981-08-25 06:01:58.890 ,2,0,0.,0.8,0.,0.8,0.,0.8,0.,0.8
1981-08-25 06:01:59.690 ,2,0,0.,0.8,0.,0.8,0.,0.8,0.,0.8
1981-08-25 06:02:00.490 ,2,0,0.,0.8,0.,0.8,0.,0.8,0.,0.8
1981-08-25 06:02:01.290 ,2,0,0.,0.8,0.,0.8,0.,0.8,0.,0.8
1981-08-25 06:02:02.090 ,2,0,0.,0.8,0.,0.8,0.,0.8,0.,0.8
1981-08-25 06:02:02.890 ,2,0,0.,0.8,0.,0.8,0.,0.8,0.,0.8
1981-08-25 06:02:03.690 ,2,0,0.,0.8,0.,0.8,0.,0.8,0.,0.8
1981-08-25 06:02:04.490 ,2,0,0.,0.8,0.,0.8,0.,0.8,0.,0.8
1981-08-25 06:02:05.290 ,2,0,0.,0.8,0.,0.8,0.,0.8,0.,0.8
1981-08-25 06:02:06.090 ,2,0,0.,0.8,0.,0.8,0.,0.8,0.,0.8
1981-08-25 06:02:06.890 ,2,0,0.,0.8,0.,0.8,0.,0.8,0.,0.8
1981-08-25 06:02:07.690 ,2,0,0.,0.8,0.,0.8,0.,0.8,0.,0.8
1981-08-25 06:02:08.490 ,2,0,0.,0.8,0.,0.8,0.,0.8,0.,0.8
1981-08-25 06:02:09.290 ,2,0,0.,0.8,0.,0.8,0.,0.8,0.,0.8
1981-08-25 06:02:10.090 ,2,0,0.,0.8,0.,0.8,0.,0.8,0.,0.8
1981-08-25 06:02:10.890 ,2,0,0.,0.8,0.,0.8,0.,0.8,0.,0.8
1981-08-25 06:02:11.690 ,2,0,0.,0.8,0.,0.8,0.,0.8,0.,0.8
1981-08-25 06:02:12.490 ,2,0,0.,0.8,0.,0.8,0.,0.8,0.,0.8
1981-08-25 06:02:13.290 ,2,0,0.,0.8,0.,0.8,0.,0.8,0.,0.8
1981-08-25 06:02:14.090 ,2,0,0.,0.8,0.,0.8,0.,0.8,0.,0.8
1981-08-25 06:02:14.890 ,2,0,0.,0.8,0.,0.8,0.,0.8,0.,0.8
1981-08-25 06:02:15.690 ,2,0,0.,0.8,0.,0.8,0.,0.8,0.,0.8
1981-08-25 06:02:16.490 ,2,0,0.,0.8,0.,0.8,0.,0.8,0.,0.8
1981-08-25 06:02:17.290 ,2,0,0.,0.8,0.,0.8,0.,0.8,0.,0.8
1981-08-25 06:02:18.090 ,2,0,0.,0.8,0.,0.8,0.,0.8,0.,0.8
1981-08-25 06:02:18.890 ,2,0,0.,0.8,0.,0.8,0.,0.8,0.,0.8
1981-08-25 06:02:19.690 ,2,0,0.,0.8,0.,0.8,0.,0.8,0.,0.8
1981-08-25 06:02:20.490 ,2,0,0.,0.8,0.,0.8,0.,0.8,0.,0.8
1981-08-25 06:02:21.290 ,2,0,0.,0.8,0.,0.8,0.,0.8,0.,0.8
1981-08-25 06:02:22.090 ,2,0,0.,0.8,0.,0.8,0.,0.8,0.,0.8
1981-08-25 06:02:22.890 ,2,0,0.,0.8,0.,0.8,0.,0.8,0.,0.8
1981-08-25 06:02:23.690 ,3,0,0.,0.8,0.,0.8,0.,0.8,0.,0.8
1981-08-25 06:02:24.490 ,3,0,0.,0.8,0.,0.8,0.,0.8,0.,0.8
1981-08-25 06:02:25.290 ,3,0,0.,0.8,0.,0.8,0.,0.8,0.,0.8
1981-08-25 06:02:26.090 ,3,0,0.,0.8,0.,0.8,0.,0.8,0.,0.8
1981-08-25 06:02:26.890 ,3,0,0.,0.8,0.,0.8,0.,0.8,0.,0.8
1981-08-25 06:02:27.690 ,3,0,0.,0.8,0.,0.8,0.,0.8,0.,0.8
1981-08-25 06:02:28.490 ,3,0,0.,0.8,0.,0.8,0.,0.8,0.,0.8
1981-08-25 06:02:29.290 ,3,0,0.,0.8,0.,0.8,0.,0.8,0.,0.8
1981-08-25 06:02:30.090 ,3,0,0.,0.8,0.,0.8,0.,0.8,0.,0.8
1981-08-25 06:02:30.890 ,3,0,0.,0.8,0.,0.8,0.,0.8,0.,0.8
1981-08-25 06:02:31.690 ,3,0,0.,0.8,0.,0.8,0.,0.8,0.,0.8
1981-08-25 06:02:32.490 ,3,0,0.,0.8,0.,0.8,0.,0.8,0.,0.8
1981-08-25 06:02:33.290 ,3,0,0.,0.8,0.,0.8,0.,0.8,0.,0.8
1981-08-25 06:02:34.090 ,3,0,0.,0.8,0.,0.8,0.,0.8,0.,0.8
1981-08-25 06:02:34.890 ,3,0,0.,0.8,0.,0.8,0.,0.8,0.,0.8
1981-08-25 06:02:35.690 ,3,0,0.,0.8,0.,0.8,0.,0.8,0.,0.8
1981-08-25 06:02:36.490 ,3,0,0.,0.8,0.,0.8,0.,0.8,0.,0.8
1981-08-25 06:02:37.290 ,3,0,0.,0.8,0.,0.8,0.,0.8,0.,0.8
1981-08-25 06:02:38.090 ,3,0,0.,0.8,0.,0.8,0.,0.8,0.,0.8
1981-08-25 06:02:38.890 ,3,0,0.,0.8,0.,0.8,0.,0.8,0.,0.8
1981-08-25 06:02:39.690 ,3,0,0.,0.8,0.,0.8,1.,0.8,0.,0.8
1981-08-25 06:02:40.490 ,3,0,0.,0.8,0.,0.8,0.,0.8,0.,0.8
1981-08-25 06:02:41.290 ,3,0,0.,0.8,0.,0.8,0.,0.8,0.,0.8
1981-08-25 06:02:42.090 ,3,0,0.,0.8,0.,0.8,0.,0.8,0.,0.8
1981-08-25 06:02:42.890 ,3,0,0.,0.8,0.,0.8,0.,0.8,0.,0.8
1981-08-25 06:02:43.690 ,3,0,0.,0.8,0.,0.8,0.,0.8,0.,0.8
1981-08-25 06:02:44.490 ,3,0,0.,0.8,0.,0.8,0.,0.8,0.,0.8
1981-08-25 06:02:45.290 ,3,0,0.,0.8,0.,0.8,0.,0.8,0.,0.8
1981-08-25 06:02:46.090 ,3,0,0.,0.8,0.,0.8,0.,0.8,0.,0.8
1981-08-25 06:02:46.890 ,3,0,0.,0.8,0.,0.8,0.,0.8,0.,0.8
1981-08-25 06:02:47.690 ,3,0,0.,0.8,0.,0.8,0.,0.8,0.,0.8
1981-08-25 06:02:48.490 ,3,0,0.,0.8,0.,0.8,0.,0.8,0.,0.8
1981-08-25 06:02:49.290 ,3,0,0.,0.8,0.,0.8,0.,0.8,0.,0.8
1981-08-25 06:02:50.090 ,3,0,0.,0.8,0.,0.8,0.,0.8,0.,0.8
1981-08-25 06:02:50.890 ,3,0,0.,0.8,0.,0.8,0.,0.8,0.,0.8
1981-08-25 06:02:51.690 ,3,0,0.,0.8,0.,0.8,0.,0.8,0.,0.8
1981-08-25 06:02:52.490 ,3,0,0.,0.8,0.,0.8,0.,0.8,0.,0.8
1981-08-25 06:02:53.290 ,3,0,0.,0.8,0.,0.8,0.,0.8,0.,0.8
1981-08-25 06:02:54.090 ,3,0,0.,0.8,0.,0.8,0.,0.8,0.,0.8
1981-08-25 06:02:54.890 ,3,0,0.,0.8,0.,0.8,0.,0.8,0.,0.8
1981-08-25 06:02:55.690 ,3,0,0.,0.8,0.,0.8,0.,0.8,0.,0.8
1981-08-25 06:02:56.490 ,3,0,0.,0.8,0.,0.8,0.,0.8,0.,0.8
1981-08-25 06:02:57.290 ,3,0,0.,0.8,0.,0.8,0.,0.8,0.,0.8
1981-08-25 06:02:58.090 ,3,0,0.,0.8,0.,0.8,0.,0.8,0.,0.8
1981-08-25 06:02:58.890 ,3,0,0.,0.8,0.,0.8,0.,0.8,0.,0.8
1981-08-25 06:02:59.690 ,3,0,0.,0.8,0.,0.8,0.,0.8,0.,0.8
1981-08-25 06:03:00.490 ,3,0,0.,0.8,0.,0.8,0.,0.8,0.,0.8
1981-08-25 06:03:01.290 ,3,0,0.,0.8,0.,0.8,0.,0.8,0.,0.8
1981-08-25 06:03:02.090 ,3,0,0.,0.8,0.,0.8,0.,0.8,0.,0.8
1981-08-25 06:03:02.890 ,3,0,0.,0.8,0.,0.8,0.,0.8,0.,0.8
1981-08-25 06:03:03.690 ,3,0,1.,0.8,0.,0.8,0.,0.8,0.,0.8
1981-08-25 06:03:04.490 ,3,0,0.,0.8,0.,0.8,0.,0.8,0.,0.8
1981-08-25 06:03:05.290 ,3,0,0.,0.8,0.,0.8,0.,0.8,0.,0.8
1981-08-25 06:03:06.090 ,3,0,0.,0.8,0.,0.8,0.,0.8,0.,0.8
1981-08-25 06:03:06.890 ,3,0,0.,0.8,0.,0.8,0.,0.8,0.,0.8
1981-08-25 06:03:07.690 ,3,0,0.,0.8,0.,0.8,0.,0.8,0.,0.8
1981-08-25 06:03:08.490 ,3,0,0.,0.8,0.,0.8,0.,0.8,0.,0.8
1981-08-25 06:03:09.290 ,3,0,0.,0.8,0.,0.8,0.,0.8,0.,0.8
1981-08-25 06:03:10.090 ,3,0,0.,0.8,0.,0.8,0.,0.8,0.,0.8
1981-08-25 06:03:10.890 ,3,0,0.,0.8,0.,0.8,0.,0.8,0.,0.8
1981-08-25 06:03:11.690 ,4,0,0.,0.8,0.,0.8,0.,0.8,0.,0.8
1981-08-25 06:03:12.490 ,4,0,0.,0.8,0.,0.8,0.,0.8,0.,0.8
1981-08-25 06:03:13.290 ,4,0,0.,0.8,0.,0.8,0.,0.8,0.,0.8
1981-08-25 06:03:14.090 ,4,0,0.,0.8,0.,0.8,0.,0.8,0.,0.8
1981-08-25 06:03:14.890 ,4,0,0.,0.8,0.,0.8,0.,0.8,0.,0.8
1981-08-25 06:03:15.690 ,4,0,0.,0.8,1.,0.8,0.,0.8,0.,0.8
1981-08-25 06:03:16.490 ,4,0,0.,0.8,0.,0.8,0.,0.8,0.,0.8
1981-08-25 06:03:17.290 ,4,0,0.,0.8,0.,0.8,0.,0.8,0.,0.8
1981-08-25 06:03:18.090 ,4,0,0.,0.8,0.,0.8,0.,0.8,0.,0.8
1981-08-25 06:03:18.890 ,4,0,0.,0.8,0.,0.8,0.,0.8,0.,0.8
1981-08-25 06:03:19.690 ,4,0,0.,0.8,0.,0.8,0.,0.8,0.,0.8
1981-08-25 06:03:20.490 ,4,0,0.,0.8,0.,0.8,0.,0.8,0.,0.8
1981-08-25 06:03:21.290 ,4,0,0.,0.8,0.,0.8,0.,0.8,0.,0.8
1981-08-25 06:03:22.090 ,4,0,0.,0.8,0.,0.8,0.,0.8,0.,0.8
1981-08-25 06:03:22.890 ,4,0,0.,0.8,0.,0.8,0.,0.8,0.,0.8
1981-08-25 06:03:23.690 ,4,0,0.,0.8,0.,0.8,0.,0.8,0.,0.8
1981-08-25 06:03:24.490 ,4,0,0.,0.8,0.,0.8,0.,0.8,0.,0.8
1981-08-25 06:03:25.290 ,4,0,0.,0.8,0.,0.8,0.,0.8,0.,0.8
1981-08-25 06:03:26.090 ,4,0,1.,0.8,0.,0.8,0.,0.8,0.,0.8
1981-08-25 06:03:26.890 ,4,0,0.,0.8,0.,0.8,0.,0.8,0.,0.8
1981-08-25 06:03:27.690 ,4,0,0.,0.8,0.,0.8,0.,0.8,0.,0.8
1981-08-25 06:03:28.490 ,4,0,0.,0.8,0.,0.8,0.,0.8,0.,0.8
1981-08-25 06:03:29.290 ,4,0,0.,0.8,0.,0.8,0.,0.8,0.,0.8
1981-08-25 06:03:30.090 ,4,0,0.,0.8,0.,0.8,0.,0.8,0.,0.8
1981-08-25 06:03:30.890 ,4,0,0.,0.8,0.,0.8,0.,0.8,0.,0.8
1981-08-25 06:03:31.690 ,4,0,0.,0.8,0.,0.8,0.,0.8,0.,0.8
1981-08-25 06:03:32.490 ,4,0,0.,0.8,0.,0.8,0.,0.8,0.,0.8
1981-08-25 06:03:33.290 ,4,0,0.,0.8,0.,0.8,0.,0.8,0.,0.8
1981-08-25 06:03:34.090 ,4,0,0.,0.8,0.,0.8,0.,0.8,0.,0.8
1981-08-25 06:03:34.890 ,4,0,0.,0.8,0.,0.8,0.,0.8,0.,0.8
1981-08-25 06:03:35.690 ,4,0,0.,0.8,0.,0.8,0.,0.8,0.,0.8
1981-08-25 06:03:36.490 ,4,0,0.,0.8,0.,0.8,0.,0.8,0.,0.8
1981-08-25 06:03:37.290 ,4,0,0.,0.8,0.,0.8,0.,0.8,0.,0.8
1981-08-25 06:03:38.090 ,4,0,0.,0.8,0.,0.8,0.,0.8,0.,0.8
1981-08-25 06:03:38.890 ,4,0,0.,0.8,0.,0.8,0.,0.8,0.,0.8
1981-08-25 06:03:39.690 ,4,0,0.,0.8,0.,0.8,0.,0.8,0.,0.8
1981-08-25 06:03:40.490 ,4,0,0.,0.8,0.,0.8,0.,0.8,0.,0.8
1981-08-25 06:03:41.290 ,4,0,0.,0.8,0.,0.8,0.,0.8,0.,0.8
1981-08-25 06:03:42.090 ,4,0,0.,0.8,0.,0.8,0.,0.8,0.,0.8
1981-08-25 06:03:42.890 ,4,0,1.,0.8,0.,0.8,0.,0.8,0.,0.8
1981-08-25 06:03:43.690 ,4,0,1.,0.8,0.,0.8,0.,0.8,0.,0.8
1981-08-25 06:03:44.490 ,4,0,0.,0.8,0.,0.8,0.,0.8,0.,0.8
1981-08-25 06:03:45.290 ,4,0,0.,0.8,0.,0.8,0.,0.8,0.,0.8
1981-08-25 06:03:46.090 ,4,0,0.,0.8,0.,0.8,0.,0.8,0.,0.8
1981-08-25 06:03:46.890 ,4,0,0.,0.8,0.,0.8,0.,0.8,0.,0.8
1981-08-25 06:03:47.690 ,4,0,0.,0.8,0.,0.8,0.,0.8,0.,0.8
1981-08-25 06:03:48.490 ,4,0,0.,0.8,0.,0.8,0.,0.8,0.,0.8
1981-08-25 06:03:49.290 ,4,0,0.,0.8,0.,0.8,0.,0.8,0.,0.8
1981-08-25 06:03:50.090 ,4,0,0.,0.8,0.,0.8,0.,0.8,0.,0.8
1981-08-25 06:03:50.890 ,4,0,0.,0.8,0.,0.8,0.,0.8,0.,0.8
1981-08-25 06:03:51.690 ,4,0,0.,0.8,0.,0.8,0.,0.8,0.,0.8
1981-08-25 06:03:52.490 ,4,0,0.,0.8,0.,0.8,0.,0.8,0.,0.8
1981-08-25 06:03:53.290 ,4,0,0.,0.8,0.,0.8,0.,0.8,0.,0.8
1981-08-25 06:03:54.090 ,4,0,0.,0.8,0.,0.8,0.,0.8,0.,0.8
1981-08-25 06:03:54.890 ,4,0,0.,0.8,0.,0.8,0.,0.8,0.,0.8
1981-08-25 06:03:55.690 ,4,0,0.,0.8,0.,0.8,0.,0.8,0.,0.8
1981-08-25 06:03:56.490 ,4,0,0.,0.8,0.,0.8,0.,0.8,0.,0.8
1981-08-25 06:03:57.290 ,4,0,0.,0.8,0.,0.8,0.,0.8,0.,0.8
1981-08-25 06:03:58.090 ,4,0,0.,0.8,0.,0.8,0.,0.8,0.,0.8
1981-08-25 06:03:58.890 ,4,0,0.,0.8,0.,0.8,0.,0.8,0.,0.8
1981-08-25 06:03:59.690 ,5,0,0.,0.8,0.,0.8,0.,0.8,0.,0.8
1981-08-25 06:04:00.490 ,5,0,0.,0.8,0.,0.8,0.,0.8,0.,0.8
1981-08-25 06:04:01.290 ,5,0,0.,0.8,0.,0.8,0.,0.8,0.,0.8
1981-08-25 06:04:02.090 ,5,0,0.,0.8,0.,0.8,0.,0.8,0.,0.8
1981-08-25 06:04:02.890 ,5,0,0.,0.8,0.,0.8,0.,0.8,0.,0.8
1981-08-25 06:04:03.690 ,5,0,0.,0.8,0.,0.8,0.,0.8,0.,0.8
1981-08-25 06:04:04.490 ,5,0,0.,0.8,0.,0.8,0.,0.8,0.,0.8
1981-08-25 06:04:05.290 ,5,0,0.,0.8,0.,0.8,0.,0.8,0.,0.8
1981-08-25 06:04:06.090 ,5,0,0.,0.8,0.,0.8,0.,0.8,0.,0.8
1981-08-25 06:04:06.890 ,5,0,4.,0.8,0.,0.8,0.,0.8,0.,0.8
1981-08-25 06:04:07.690 ,5,0,1.,0.8,0.,0.8,0.,0.8,0.,0.8
1981-08-25 06:04:08.490 ,5,0,3.,0.8,0.,0.8,0.,0.8,0.,0.8
1981-08-25 06:04:09.290 ,5,0,2.,0.8,0.,0.8,0.,0.8,0.,0.8
1981-08-25 06:04:10.090 ,5,0,3.,0.8,0.,0.8,0.,0.8,0.,0.8
1981-08-25 06:04:10.890 ,5,0,3.,0.8,0.,0.8,0.,0.8,0.,0.8
1981-08-25 06:04:11.690 ,5,0,4.,0.8,0.,0.8,0.,0.8,0.,0.8
1981-08-25 06:04:12.490 ,5,0,3.,0.8,0.,0.8,0.,0.8,0.,0.8
1981-08-25 06:04:13.290 ,5,0,0.,0.8,0.,0.8,0.,0.8,0.,0.8
1981-08-25 06:04:14.090 ,5,0,3.,0.8,0.,0.8,0.,0.8,0.,0.8
1981-08-25 06:04:14.890 ,5,0,5.,0.8,0.,0.8,0.,0.8,0.,0.8
1981-08-25 06:04:15.690 ,5,0,1.,0.8,0.,0.8,0.,0.8,0.,0.8
1981-08-25 06:04:16.490 ,5,0,1.,0.8,0.,0.8,0.,0.8,0.,0.8
1981-08-25 06:04:17.290 ,5,0,2.,0.8,0.,0.8,0.,0.8,0.,0.8
1981-08-25 06:04:18.090 ,5,0,2.,0.8,0.,0.8,0.,0.8,0.,0.8
1981-08-25 06:04:18.890 ,5,0,5.,0.8,0.,0.8,0.,0.8,0.,0.8
1981-08-25 06:04:19.690 ,5,0,5.,0.8,0.,0.8,0.,0.8,0.,0.8
1981-08-25 06:04:20.490 ,5,0,3.,0.8,0.,0.8,0.,0.8,0.,0.8
1981-08-25 06:04:21.290 ,5,0,2.,0.8,0.,0.8,0.,0.8,0.,0.8
1981-08-25 06:04:22.090 ,5,0,3.,0.8,0.,0.8,0.,0.8,0.,0.8
1981-08-25 06:04:22.890 ,5,0,3.,0.8,0.,0.8,0.,0.8,0.,0.8
1981-08-25 06:04:23.690 ,5,0,2.,0.8,0.,0.8,0.,0.8,0.,0.8
1981-08-25 06:04:24.490 ,5,0,1.,0.8,0.,0.8,0.,0.8,0.,0.8
1981-08-25 06:04:25.290 ,5,0,5.,0.8,0.,0.8,0.,0.8,0.,0.8
1981-08-25 06:04:26.090 ,5,0,1.,0.8,0.,0.8,0.,0.8,0.,0.8
1981-08-25 06:04:26.890 ,5,0,1.,0.8,0.,0.8,0.,0.8,0.,0.8
1981-08-25 06:04:27.690 ,5,0,3.,0.8,0.,0.8,0.,0.8,0.,0.8
1981-08-25 06:04:28.490 ,5,0,2.,0.8,0.,0.8,0.,0.8,0.,0.8
1981-08-25 06:04:29.290 ,5,0,6.,0.8,0.,0.8,0.,0.8,0.,0.8
1981-08-25 06:04:30.090 ,5,0,2.,0.8,0.,0.8,0.,0.8,0.,0.8
1981-08-25 06:04:30.890 ,5,0,0.,0.8,0.,0.8,0.,0.8,0.,0.8
1981-08-25 06:04:31.690 ,5,0,1.,0.8,0.,0.8,0.,0.8,0.,0.8
1981-08-25 06:04:32.490 ,5,0,0.,0.8,0.,0.8,0.,0.8,0.,0.8
1981-08-25 06:04:33.290 ,5,0,2.,0.8,0.,0.8,0.,0.8,0.,0.8
1981-08-25 06:04:34.090 ,5,0,2.,0.8,0.,0.8,0.,0.8,0.,0.8
1981-08-25 06:04:34.890 ,5,0,2.,0.8,0.,0.8,0.,0.8,0.,0.8
1981-08-25 06:04:35.690 ,5,0,9.,0.8,0.,0.8,0.,0.8,0.,0.8
1981-08-25 06:04:36.490 ,5,0,2.,0.8,0.,0.8,0.,0.8,0.,0.8
1981-08-25 06:04:37.290 ,5,0,6.,0.8,0.,0.8,0.,0.8,0.,0.8
1981-08-25 06:04:38.090 ,5,0,3.,0.8,0.,0.8,0.,0.8,0.,0.8
1981-08-25 06:04:38.890 ,5,0,4.,0.8,0.,0.8,0.,0.8,0.,0.8
1981-08-25 06:04:39.690 ,5,0,5.,0.8,0.,0.8,0.,0.8,0.,0.8
1981-08-25 06:04:40.490 ,5,0,5.,0.8,0.,0.8,0.,0.8,0.,0.8
1981-08-25 06:04:41.290 ,5,0,7.,0.8,0.,0.8,0.,0.8,0.,0.8
1981-08-25 06:04:42.090 ,5,0,4.,0.8,0.,0.8,0.,0.8,0.,0.8
1981-08-25 06:04:42.890 ,5,0,3.,0.8,0.,0.8,0.,0.8,0.,0.8
1981-08-25 06:04:43.690 ,5,0,3.,0.8,0.,0.8,0.,0.8,0.,0.8
1981-08-25 06:04:44.490 ,5,0,2.,0.8,0.,0.8,0.,0.8,0.,0.8
1981-08-25 06:04:45.290 ,5,0,5.,0.8,0.,0.8,0.,0.8,0.,0.8
1981-08-25 06:04:46.090 ,5,0,5.,0.8,0.,0.8,0.,0.8,0.,0.8
1981-08-25 06:04:46.890 ,5,0,4.,0.8,0.,0.8,0.,0.8,0.,0.8
1981-08-25 06:04:47.690 ,6,0,3.,0.8,0.,0.8,0.,0.8,0.,0.8
1981-08-25 06:04:48.490 ,6,0,0.,0.8,0.,0.8,0.,0.8,0.,0.8
1981-08-25 06:04:49.290 ,6,0,3.,0.8,0.,0.8,0.,0.8,0.,0.8
1981-08-25 06:04:50.090 ,6,0,3.,0.8,0.,0.8,0.,0.8,0.,0.8
1981-08-25 06:04:50.890 ,6,0,3.,0.8,0.,0.8,0.,0.8,0.,0.8
1981-08-25 06:04:51.690 ,6,0,3.,0.8,0.,0.8,0.,0.8,0.,0.8
1981-08-25 06:04:52.490 ,6,0,3.,0.8,0.,0.8,0.,0.8,0.,0.8
1981-08-25 06:04:53.290 ,6,0,6.,0.8,0.,0.8,0.,0.8,0.,0.8
1981-08-25 06:04:54.090 ,6,0,3.,0.8,0.,0.8,0.,0.8,0.,0.8
1981-08-25 06:04:54.890 ,6,0,1.,0.8,0.,0.8,0.,0.8,0.,0.8
1981-08-25 06:04:55.690 ,6,0,4.,0.8,0.,0.8,0.,0.8,0.,0.8
1981-08-25 06:04:56.490 ,6,0,12.,0.8,0.,0.8,0.,0.8,0.,0.8
1981-08-25 06:04:57.290 ,6,0,4.,0.8,0.,0.8,0.,0.8,0.,0.8
1981-08-25 06:04:58.090 ,6,0,6.,0.8,0.,0.8,0.,0.8,0.,0.8
1981-08-25 06:04:58.890 ,6,0,2.,0.8,0.,0.8,0.,0.8,0.,0.8
1981-08-25 06:04:59.690 ,6,0,5.,0.8,0.,0.8,0.,0.8,0.,0.8
1981-08-25 06:05:00.490 ,6,0,6.,0.8,0.,0.8,0.,0.8,0.,0.8
1981-08-25 06:05:01.290 ,6,0,8.,0.8,0.,0.8,0.,0.8,0.,0.8
1981-08-25 06:05:02.090 ,6,0,5.,0.8,0.,0.8,0.,0.8,0.,0.8
1981-08-25 06:05:02.890 ,6,0,3.,0.8,0.,0.8,0.,0.8,0.,0.8
1981-08-25 06:05:03.690 ,6,0,2.,0.8,0.,0.8,0.,0.8,0.,0.8
1981-08-25 06:05:04.490 ,6,0,7.,0.8,0.,0.8,0.,0.8,0.,0.8
1981-08-25 06:05:05.290 ,6,0,7.,0.8,0.,0.8,0.,0.8,0.,0.8
1981-08-25 06:05:06.090 ,6,0,4.,0.8,0.,0.8,0.,0.8,0.,0.8
1981-08-25 06:05:06.890 ,6,0,5.,0.8,0.,0.8,0.,0.8,0.,0.8
1981-08-25 06:05:07.690 ,6,0,10.,0.8,0.,0.8,0.,0.8,0.,0.8
1981-08-25 06:05:08.490 ,6,0,3.,0.8,0.,0.8,0.,0.8,0.,0.8
1981-08-25 06:05:09.290 ,6,0,3.,0.8,0.,0.8,0.,0.8,0.,0.8
1981-08-25 06:05:10.090 ,6,0,3.,0.8,0.,0.8,0.,0.8,0.,0.8
1981-08-25 06:05:10.890 ,6,0,5.,0.8,0.,0.8,0.,0.8,0.,0.8
1981-08-25 06:05:11.690 ,6,0,4.,0.8,0.,0.8,0.,0.8,0.,0.8
1981-08-25 06:05:12.490 ,6,0,9.,0.8,0.,0.8,0.,0.8,0.,0.8
1981-08-25 06:05:13.290 ,6,0,3.,0.8,0.,0.8,0.,0.8,0.,0.8
1981-08-25 06:05:14.090 ,6,0,1.,0.8,0.,0.8,0.,0.8,0.,0.8
1981-08-25 06:05:14.890 ,6,0,6.,0.8,0.,0.8,0.,0.8,0.,0.8
1981-08-25 06:05:15.690 ,6,0,6.,0.8,0.,0.8,0.,0.8,0.,0.8
1981-08-25 06:05:16.490 ,6,0,7.,0.8,0.,0.8,0.,0.8,0.,0.8
1981-08-25 06:05:17.290 ,6,0,2.,0.8,0.,0.8,0.,0.8,0.,0.8
1981-08-25 06:05:18.090 ,6,0,8.,0.8,0.,0.8,0.,0.8,0.,0.8
1981-08-25 06:05:18.890 ,6,0,2.,0.8,0.,0.8,0.,0.8,0.,0.8
1981-08-25 06:05:19.690 ,6,0,2.,0.8,0.,0.8,0.,0.8,0.,0.8
1981-08-25 06:05:20.490 ,6,0,9.,0.8,0.,0.8,0.,0.8,0.,0.8
1981-08-25 06:05:21.290 ,6,0,4.,0.8,0.,0.8,0.,0.8,0.,0.8
1981-08-25 06:05:22.090 ,6,0,2.,0.8,0.,0.8,0.,0.8,0.,0.8
1981-08-25 06:05:22.890 ,6,0,5.,0.8,0.,0.8,0.,0.8,0.,0.8
1981-08-25 06:05:23.690 ,6,0,9.,0.8,0.,0.8,0.,0.8,0.,0.8
1981-08-25 06:05:24.490 ,6,0,4.,0.8,0.,0.8,0.,0.8,0.,0.8
1981-08-25 06:05:25.290 ,6,0,6.,0.8,0.,0.8,0.,0.8,0.,0.8
1981-08-25 06:05:26.090 ,6,0,1.,0.8,0.,0.8,0.,0.8,0.,0.8
1981-08-25 06:05:26.890 ,6,0,3.,0.8,0.,0.8,0.,0.8,0.,0.8
1981-08-25 06:05:27.690 ,6,0,7.,0.8,0.,0.8,0.,0.8,0.,0.8
1981-08-25 06:05:28.490 ,6,0,5.,0.8,0.,0.8,0.,0.8,0.,0.8
1981-08-25 06:05:29.290 ,6,0,6.,0.8,0.,0.8,0.,0.8,0.,0.8
1981-08-25 06:05:30.090 ,6,0,7.,0.8,0.,0.8,0.,0.8,0.,0.8
1981-08-25 06:05:30.890 ,6,0,3.,0.8,0.,0.8,0.,0.8,0.,0.8
1981-08-25 06:05:31.690 ,6,0,4.,0.8,0.,0.8,0.,0.8,0.,0.8
1981-08-25 06:05:32.490 ,6,0,5.,0.8,0.,0.8,0.,0.8,0.,0.8
1981-08-25 06:05:33.290 ,6,0,7.,0.8,0.,0.8,0.,0.8,0.,0.8
1981-08-25 06:05:34.090 ,6,0,2.,0.8,0.,0.8,0.,0.8,0.,0.8
1981-08-25 06:05:34.890 ,6,0,4.,0.8,0.,0.8,0.,0.8,0.,0.8
1981-08-25 06:05:35.690 ,7,0,10.,0.8,0.,0.8,0.,0.8,0.,0.8
1981-08-25 06:05:36.490 ,7,0,6.,0.8,0.,0.8,0.,0.8,0.,0.8
1981-08-25 06:05:37.290 ,7,0,8.,0.8,0.,0.8,0.,0.8,0.,0.8
1981-08-25 06:05:38.090 ,7,0,9.,0.8,0.,0.8,1.,0.8,0.,0.8
1981-08-25 06:05:38.890 ,7,0,5.,0.8,0.,0.8,0.,0.8,0.,0.8
1981-08-25 06:05:39.690 ,7,0,8.,0.8,0.,0.8,0.,0.8,0.,0.8
1981-08-25 06:05:40.490 ,7,0,4.,0.8,0.,0.8,0.,0.8,0.,0.8
1981-08-25 06:05:41.290 ,7,0,5.,0.8,0.,0.8,0.,0.8,0.,0.8
1981-08-25 06:05:42.090 ,7,0,2.,0.8,0.,0.8,0.,0.8,0.,0.8
1981-08-25 06:05:42.890 ,7,0,0.,0.8,0.,0.8,0.,0.8,0.,0.8
1981-08-25 06:05:43.690 ,7,0,0.,0.8,0.,0.8,0.,0.8,0.,0.8
1981-08-25 06:05:44.490 ,7,0,0.,0.8,0.,0.8,0.,0.8,0.,0.8
1981-08-25 06:05:45.290 ,7,0,0.,0.8,0.,0.8,0.,0.8,0.,0.8
1981-08-25 06:05:46.090 ,7,0,1.,0.8,0.,0.8,0.,0.8,0.,0.8
1981-08-25 06:05:46.890 ,7,0,1.,0.8,0.,0.8,0.,0.8,0.,0.8
1981-08-25 06:05:47.690 ,7,0,0.,0.8,0.,0.8,0.,0.8,0.,0.8
1981-08-25 06:05:48.490 ,7,0,0.,0.8,0.,0.8,0.,0.8,0.,0.8
1981-08-25 06:05:49.290 ,7,0,0.,0.8,0.,0.8,0.,0.8,0.,0.8
1981-08-25 06:05:50.090 ,7,0,0.,0.8,0.,0.8,0.,0.8,0.,0.8
1981-08-25 06:05:50.890 ,7,0,0.,0.8,0.,0.8,0.,0.8,0.,0.8
1981-08-25 06:05:51.690 ,7,0,0.,0.8,0.,0.8,0.,0.8,0.,0.8
1981-08-25 06:05:52.490 ,7,0,0.,0.8,0.,0.8,0.,0.8,0.,0.8
1981-08-25 06:05:53.290 ,7,0,0.,0.8,0.,0.8,0.,0.8,0.,0.8
1981-08-25 06:05:54.090 ,7,0,0.,0.8,0.,0.8,0.,0.8,0.,0.8